Miscellaneous Local Product
Issued by NWS North Platte, NE

Home | Current Version | Previous Version | Graphics & Text | Print | Product List | Glossary On
Versions: 1 2 3 4 5 6 7 8 9 10 11 12 13 14 15 16 17 18 19 20 21 22 23 24 25 26 27 28 29 30 31 32 33 34 35 36 37 38 39 40 41 42 43 44 45 46 47 48 49 50
145
AXUS43 KLBF 230510
MISLBF


WESTERN AND NORTH CENTRAL NEBRASKA HOURLY WEATHER ROUNDUP
NATIONAL WEATHER SERVICE NORTH PLATTE NE
1200 AM CDT MON MAY 23 2016

NOTE: "FAIR" INDICATES FEW OR NO CLOUDS BELOW 12,000 FEET WITH NO
SIGNIFICANT WEATHER AND/OR OBSTRUCTIONS TO VISIBILITY.

NOTE: STATIONS NOT REPORTING VARIABLES SUCH AS SKY/WEATHER OR
PRESSURE ARE PROVIDED BY RAWS AND APRS NETWORKS AND ARE NOT UNDER
NATIONAL WEATHER SERVICE QUALITY CONTROL.

...OBSERVATIONS IN AND NEAR THE EASTERN PANHANDLE OF NEBRASKA...

CITY           SKY/WX    TMP DP  RH WIND       PRES   REMARKS
PINE RIDGE     CLOUDY    54  42  64 E7        29.74F
CHADRON        CLOUDY    53  46  77 W3        29.76R
ALLIANCE       MOCLDY    52  43  71 E5        29.82R
SIDNEY         CLEAR     55  41  59 NW12      29.87R
CRESCENT LAKE    N/A     54  44  67 NE6G25      N/A
BIG SPRINGS      N/A     59  45  59 N3          N/A
$$

...OBSERVATIONS IN NORTHERN NEBRASKA AND FAR SOUTHERN SOUTH DAKOTA...

CITY           SKY/WX    TMP DP  RH WIND       PRES   REMARKS
WINNER         TSTM      62  58  86 SW10G17   29.70R
VALENTINE      CLOUDY    57  47  69 W13G22    29.79R
THEDFORD       TSTM      54  51  89 W13G21    29.80R
AINSWORTH      TSTM      58  57  96 W16       29.77R
O`NEILL        CLOUDY    74  64  69 S25G35    29.69R
ORD            CLOUDY    72  65  78 S20G30    29.71R
BROKEN BOW     CLOUDY    71  66  84 S18G32    29.70R
VALENTINE NWR    N/A     58  57  98 W16G23      N/A
BUTTE            N/A     65  55  70 N10         N/A
CHAMBERS         N/A     72  65  80 S15G24      N/A
EWING            N/A     73  65  77 S12G20      N/A
$$

...OBSERVATIONS IN SOUTHWEST NEBRASKA AND FAR NORTHEAST COLORADO...

CITY           SKY/WX    TMP DP  RH WIND       PRES   REMARKS
WRAY           CLOUDY    59  46  63 N25G31    29.85R
HOLYOKE        CLOUDY    61  43  51 N12       29.87R THUNDER
IMPERIAL       CLOUDY    60  45  57 N24G36    29.83R
OGALLALA       CLOUDY    58  44  58 N14G26    29.84R
NORTH PLATTE   LGT RAIN  55  51  86 NW15G30   29.78R
MCCOOK         CLOUDY    71  64  78 S25G40    29.67S
LEXINGTON      PTCLDY    70  65  83 S22G28    29.70R
PAXTON           N/A     57  50  78 NW25        N/A
STAPLETON        N/A     52  50  93 W3          N/A
GOTHENBURG       N/A     71  62  73 S14         N/A
CALLAWAY         N/A     70  65  83 S29         N/A
$$

...OBSERVATIONS IN CENTRAL LINCOLN COUNTY AREA...

CITY           SKY/WX    TMP DP  RH WIND       PRES   REMARKS
N.P. AIRPORT   LGT RAIN  55  51  86 NW15G30   29.78R
N.P. DOWNTOWN    N/A     56  51  84 NW9G20      N/A
N.P. SOUTHEAST   N/A     55  51  85 N10G23      N/A
N.P. HILLCREST   N/A     53  52  96 N26G35      N/A
$$

...SOME OBSERVATIONS FROM AROUND THE REGION...

CITY           SKY/WX    TMP DP  RH WIND       PRES   REMARKS
DENVER         PTCLDY    51  44  77 SE9       29.86R
LARAMIE        CLEAR     37  29  72 SW9       29.97F WCI  30
CHEYENNE       PTCLDY    48  30  49 NW13G21   29.88R
SCOTTSBLUFF    CLOUDY    52  46  80 W7        29.80R
RAPID CITY     CLOUDY    52  44  74 SW12      29.71S
BISMARCK       CLOUDY    61  53  75 NW7       29.61R
PIERRE         TSTM      58  54  86 SE3       29.68R
SIOUX FALLS    CLOUDY    72  57  59 S25G31    29.71F
OMAHA          MOCLDY    71  60  68 SE16      29.84F
GRAND ISLAND   MOCLDY    70  64  81 S21G29    29.76S
KANSAS CITY    CLEAR     68  55  63 S12       29.94S
WICHITA        CLOUDY    71  64  78 S22       29.89S
OKLAHOMA CITY  CLOUDY    71  65  81 S17G25    29.93S
DALLAS         CLOUDY    78  67  68 SE16      29.89F
AMARILLO       CLOUDY    62  58  86 SE25G32   29.91R
DODGE CITY     LGT RAIN  68  66  93 S31G43    29.79F
HAYS           CLOUDY    72  61  68 S15G24    29.82R
GOODLAND       CLEAR     66  60  81 S30G40    29.75S
$$




USA.gov is the U.S. government's official web portal to all federal, state and local government web resources and services.